QPF
0.00 0.00 0.00 0.00 0.00 0.00 0.00 0.00 0.00 0.00 0.00 0.00 0.00 0.00 0.00 0.01 0.01 0.01 0.02 0.02 0.03 0.03 0.03 0.03 0.02 0.03 0.04 0.05 0.06 0.08 0.11 0.15 0.17 0.17 0.15 0.14 0.12 0.10 0.10 0.11 0.11 0.09 0.07 0.06
0.00 0.00 0.00 0.00 0.00 0.00 0.00 0.00 0.00 0.00 0.00 0.00 0.00 0.00 0.01 0.01 0.01 0.01 0.02 0.02 0.02 0.05 0.05 0.02 0.02 0.04 0.05 0.05 0.07 0.09 0.14 0.17 0.18 0.18 0.15 0.11 0.11 0.12 0.11 0.11 0.10 0.09 0.10 0.09
0.00 0.00 0.00 0.00 0.00 0.00 0.00 0.00 0.00 0.00 0.00 0.00 0.00 0.00 0.01 0.01 0.01 0.01 0.02 0.02 0.02 0.03 0.02 0.02 0.03 0.05 0.05 0.06 0.07 0.13 0.18 0.17 0.16 0.14 0.12 0.10 0.11 0.13 0.12 0.10 0.09 0.08 0.08 0.10
0.00 0.00 0.00 0.00 0.00 0.00 0.00 0.00 0.00 0.00 0.00 0.00 0.00 0.00 0.01 0.01 0.01 0.02 0.02 0.02 0.02 0.02 0.02 0.02 0.02 0.05 0.06 0.06 0.06 0.10 0.11 0.07 0.09 0.08 0.06 0.06 0.07 0.09 0.09 0.09 0.09 0.09 0.12 0.14
0.00 0.00 0.00 0.00 0.00 0.00 0.00 0.00 0.00 0.00 0.00 0.00 0.00 0.00 0.00 0.01 0.01 0.02 0.03 0.03 0.02 0.02 0.02 0.02 0.03 0.06 0.06 0.04 0.04 0.04 0.06 0.06 0.05 0.05 0.04 0.05 0.06 0.07 0.09 0.10 0.11 0.13 0.15 0.12
0.00 0.00 0.00 0.00 0.00 0.00 0.00 0.00 0.00 0.00 0.00 0.00 0.00 0.00 0.00 0.01 0.01 0.02 0.02 0.02 0.02 0.01 0.02 0.02 0.02 0.04 0.05 0.05 0.05 0.04 0.05 0.05 0.04 0.03 0.04 0.04 0.05 0.07 0.08 0.08 0.09 0.10 0.08 0.06
0.00 0.00 0.00 0.00 0.00 0.00 0.00 0.00 0.00 0.00 0.00 0.00 0.00 0.00 0.00 0.01 0.02 0.02 0.02 0.03 0.02 0.03 0.02 0.02 0.02 0.03 0.04 0.04 0.04 0.03 0.03 0.03 0.04 0.04 0.04 0.05 0.05 0.06 0.06 0.05 0.05 0.06 0.05 0.03
0.00 0.00 0.00 0.00 0.00 0.00 0.00 0.00 0.00 0.00 0.00 0.00 0.00 0.00 0.00 0.00 0.01 0.01 0.02 0.03 0.02 0.03 0.03 0.02 0.03 0.02 0.03 0.03 0.02 0.01 0.02 0.02 0.03 0.03 0.03 0.04 0.04 0.04 0.05 0.06 0.04 0.03 0.02 0.03
0.00 0.00 0.00 0.00 0.00 0.00 0.00 0.00 0.00 0.00 0.00 0.00 0.00 0.00 0.01 0.01 0.01 0.01 0.02 0.02 0.03 0.03 0.02 0.02 0.03 0.03 0.03 0.02 0.02 0.01 0.02 0.03 0.03 0.04 0.03 0.04 0.04 0.03 0.04 0.05 0.02 0.02 0.02 0.03
0.00 0.00 0.00 0.00 0.00 0.00 0.00 0.00 0.00 0.00 0.00 0.00 0.00 0.00 0.00 0.01 0.01 0.01 0.02 0.02 0.03 0.03 0.03 0.04 0.04 0.03 0.02 0.02 0.02 0.01 0.02 0.03 0.02 0.04 0.03 0.03 0.03 0.04 0.03 0.03 0.02 0.03 0.03 0.04
0.00 0.00 0.00 0.00 0.00 0.00 0.00 0.00 0.00 0.00 0.00 0.00 0.00 0.00 0.00 0.00 0.01 0.01 0.02 0.02 0.02 0.03 0.03 0.04 0.03 0.02 0.02 0.02 0.03 0.02 0.01 0.01 0.02 0.03 0.03 0.02 0.02 0.02 0.02 0.02 0.02 0.02 0.03 0.03
0.00 0.00 0.00 0.00 0.00 0.00 0.00 0.00 0.00 0.00 0.00 0.00 0.00 0.00 0.00 0.00 0.01 0.01 0.02 0.02 0.01 0.02 0.03 0.03 0.03 0.02 0.02 0.02 0.04 0.04 0.01 0.01 0.01 0.02 0.02 0.03 0.03 0.03 0.03 0.02 0.03 0.03 0.03 0.03
0.00 0.00 0.00 0.00 0.00 0.00 0.00 0.00 0.00 0.00 0.00 0.00 0.00 0.00 0.00 0.00 0.01 0.01 0.01 0.02 0.03 0.04 0.03 0.03 0.02 0.02 0.02 0.02 0.03 0.03 0.02 0.02 0.01 0.02 0.02 0.03 0.05 0.04 0.04 0.04 0.03 0.03 0.03 0.05
0.00 0.00 0.00 0.00 0.00 0.00 0.00 0.00 0.00 0.00 0.00 0.00 0.00 0.00 0.00 0.00 0.01 0.02 0.04 0.04 0.04 0.06 0.03 0.02 0.02 0.02 0.01 0.01 0.02 0.02 0.02 0.02 0.02 0.02 0.03 0.05 0.07 0.06 0.05 0.07 0.05 0.04 0.05 0.06
0.00 0.00 0.00 0.00 0.00 0.00 0.00 0.00 0.00 0.00 0.00 0.00 0.00 0.00 0.00 0.01 0.01 0.01 0.02 0.01 0.03 0.04 0.03 0.03 0.03 0.02 0.02 0.03 0.03 0.03 0.02 0.02 0.03 0.05 0.06 0.07 0.08 0.08 0.06 0.07 0.07 0.07 0.06 0.06
0.00 0.00 0.00 0.00 0.00 0.00 0.00 0.00 0.00 0.00 0.00 0.00 0.00 0.00 0.00 0.01 0.01 0.01 0.01 0.01 0.02 0.03 0.03 0.04 0.05 0.03 0.03 0.02 0.02 0.03 0.02 0.03 0.05 0.06 0.08 0.06 0.05 0.04 0.06 0.05 0.04 0.07 0.11 0.10
0.00 0.00 0.00 0.00 0.00 0.00 0.00 0.00 0.00 0.00 0.00 0.00 0.00 0.00 0.00 0.01 0.01 0.01 0.01 0.01 0.02 0.03 0.05 0.06 0.05 0.04 0.04 0.03 0.03 0.04 0.04 0.04 0.04 0.04 0.03 0.03 0.03 0.03 0.03 0.04 0.04 0.04 0.06 0.11
0.00 0.00 0.00 0.00 0.00 0.00 0.00 0.00 0.00 0.00 0.00 0.01 0.00 0.01 0.01 0.01 0.01 0.01 0.01 0.01 0.02 0.02 0.02 0.04 0.04 0.04 0.06 0.05 0.04 0.05 0.05 0.04 0.04 0.05 0.05 0.05 0.04 0.04 0.04 0.03 0.04 0.04 0.03 0.03
0.00 0.00 0.00 0.00 0.00 0.00 0.00 0.00 0.00 0.00 0.01 0.01 0.01 0.01 0.01 0.02 0.02 0.02 0.02 0.02 0.02 0.02 0.03 0.02 0.03 0.05 0.07 0.08 0.07 0.06 0.08 0.07 0.07 0.08 0.07 0.06 0.07 0.05 0.04 0.03 0.02 0.02 0.02 0.02
0.00 0.00 0.00 0.00 0.00 0.00 0.00 0.00 0.00 0.00 0.01 0.01 0.01 0.02 0.02 0.03 0.03 0.02 0.02 0.03 0.03 0.03 0.04 0.04 0.05 0.07 0.09 0.11 0.07 0.06 0.07 0.09 0.09 0.11 0.13 0.13 0.11 0.07 0.04 0.03 0.02 0.02 0.01 0.01
0.00 0.00 0.00 0.00 0.00 0.00 0.00 0.00 0.00 0.00 0.01 0.01 0.01 0.03 0.03 0.04 0.04 0.04 0.03 0.03 0.04 0.04 0.04 0.04 0.06 0.09 0.12 0.14 0.11 0.09 0.08 0.10 0.12 0.11 0.10 0.09 0.07 0.06 0.05 0.03 0.02 0.02 0.02 0.01
0.00 0.00 0.00 0.00 0.00 0.00 0.00 0.00 0.00 0.00 0.00 0.01 0.02 0.04 0.07 0.06 0.04 0.05 0.05 0.06 0.05 0.05 0.05 0.05 0.07 0.11 0.12 0.14 0.14 0.12 0.10 0.12 0.13 0.11 0.09 0.06 0.05 0.05 0.04 0.02 0.02 0.02 0.02 0.02
0.00 0.00 0.00 0.00 0.00 0.00 0.00 0.00 0.00 0.01 0.01 0.02 0.03 0.06 0.06 0.06 0.05 0.04 0.05 0.05 0.06 0.06 0.05 0.04 0.05 0.08 0.10 0.12 0.13 0.13 0.12 0.10 0.09 0.10 0.08 0.07 0.06 0.05 0.04 0.03 0.02 0.02 0.02 0.01
0.00 0.00 0.00 0.00 0.01 0.01 0.01 0.01 0.01 0.01 0.02 0.01 0.01 0.03 0.06 0.06 0.04 0.04 0.04 0.04 0.03 0.04 0.04 0.03 0.04 0.06 0.13 0.14 0.13 0.13 0.12 0.09 0.07 0.08 0.07 0.07 0.07 0.07 0.06 0.04 0.02 0.03 0.03 0.02
0.01 0.01 0.01 0.01 0.01 0.01 0.01 0.01 0.02 0.02 0.01 0.01 0.01 0.01 0.02 0.03 0.03 0.03 0.03 0.03 0.02 0.03 0.03 0.04 0.04 0.05 0.09 0.10 0.09 0.09 0.08 0.07 0.06 0.06 0.06 0.06 0.06 0.07 0.05 0.03 0.02 0.02 0.02 0.02
0.01 0.01 0.01 0.01 0.01 0.01 0.02 0.03 0.03 0.04 0.04 0.03 0.03 0.03 0.02 0.02 0.02 0.02 0.03 0.02 0.02 0.02 0.04 0.05 0.05 0.04 0.04 0.06 0.07 0.06 0.07 0.08 0.06 0.05 0.06 0.06 0.05 0.04 0.04 0.03 0.02 0.02 0.02 0.03
MSLP
1012.99 1013.79 1014.43 1014.89 1015.17 1015.29 1015.29 1015.18 1014.98 1014.69 1014.33 1013.90 1013.43 1012.97 1012.56 1012.26 1012.12 1012.18 1012.43 1012.86 1013.40 1014.01 1014.62 1015.16 1015.60 1015.93 1016.18 1016.36 1016.53 1016.71 1016.93 1017.20 1017.49 1017.79 1018.06 1018.28 1018.43 1018.52 1018.56 1018.57 1018.59 1018.63 1018.73 1018.86
1013.64 1014.25 1014.70 1015.01 1015.19 1015.30 1015.37 1015.41 1015.39 1015.30 1015.10 1014.78 1014.35 1013.83 1013.30 1012.83 1012.52 1012.41 1012.54 1012.90 1013.44 1014.09 1014.77 1015.39 1015.90 1016.26 1016.51 1016.66 1016.77 1016.90 1017.07 1017.31 1017.60 1017.92 1018.22 1018.47 1018.64 1018.72 1018.72 1018.67 1018.61 1018.58 1018.59 1018.68
1014.03 1014.43 1014.68 1014.84 1014.96 1015.10 1015.28 1015.51 1015.74 1015.90 1015.91 1015.74 1015.36 1014.81 1014.15 1013.51 1012.98 1012.68 1012.65 1012.90 1013.40 1014.06 1014.78 1015.47 1016.04 1016.46 1016.72 1016.87 1016.95 1017.05 1017.19 1017.42 1017.71 1018.05 1018.39 1018.66 1018.84 1018.91 1018.88 1018.77 1018.64 1018.53 1018.47 1018.50
1014.21 1014.40 1014.46 1014.50 1014.58 1014.79 1015.14 1015.61 1016.11 1016.55 1016.80 1016.79 1016.48 1015.90 1015.13 1014.29 1013.55 1013.02 1012.79 1012.89 1013.30 1013.93 1014.67 1015.40 1016.02 1016.49 1016.79 1016.95 1017.04 1017.12 1017.26 1017.48 1017.79 1018.15 1018.50 1018.80 1018.99 1019.05 1018.99 1018.84 1018.65 1018.48 1018.37 1018.35
1014.28 1014.27 1014.19 1014.13 1014.22 1014.53 1015.07 1015.79 1016.58 1017.29 1017.78 1017.93 1017.70 1017.09 1016.21 1015.19 1014.22 1013.46 1013.01 1012.94 1013.22 1013.77 1014.49 1015.23 1015.88 1016.39 1016.72 1016.90 1017.01 1017.09 1017.23 1017.46 1017.78 1018.15 1018.53 1018.84 1019.04 1019.10 1019.02 1018.85 1018.62 1018.40 1018.25 1018.20
1014.35 1014.18 1013.99 1013.89 1014.02 1014.44 1015.16 1016.12 1017.17 1018.13 1018.83 1019.12 1018.95 1018.33 1017.34 1016.16 1014.99 1014.01 1013.35 1013.08 1013.21 1013.66 1014.31 1015.02 1015.68 1016.19 1016.54 1016.75 1016.86 1016.96 1017.10 1017.34 1017.66 1018.04 1018.42 1018.74 1018.95 1019.01 1018.94 1018.75 1018.51 1018.27 1018.11 1018.04
1014.48 1014.21 1013.95 1013.85 1014.03 1014.57 1015.45 1016.60 1017.85 1019.00 1019.86 1020.26 1020.14 1019.50 1018.45 1017.14 1015.81 1014.65 1013.80 1013.36 1013.34 1013.66 1014.21 1014.86 1015.48 1015.98 1016.32 1016.52 1016.64 1016.73 1016.87 1017.10 1017.42 1017.79 1018.17 1018.50 1018.71 1018.79 1018.72 1018.54 1018.31 1018.09 1017.92 1017.86
1014.69 1014.38 1014.11 1014.04 1014.28 1014.91 1015.90 1017.18 1018.55 1019.81 1020.75 1021.22 1021.12 1020.49 1019.40 1018.03 1016.61 1015.33 1014.36 1013.78 1013.62 1013.81 1014.26 1014.81 1015.35 1015.80 1016.10 1016.27 1016.37 1016.44 1016.57 1016.78 1017.07 1017.44 1017.81 1018.13 1018.35 1018.44 1018.39 1018.24 1018.04 1017.85 1017.72 1017.67
1014.93 1014.63 1014.40 1014.38 1014.68 1015.37 1016.42 1017.73 1019.13 1020.41 1021.37 1021.85 1021.78 1021.16 1020.09 1018.73 1017.30 1015.99 1014.97 1014.32 1014.06 1014.14 1014.47 1014.91 1015.35 1015.70 1015.93 1016.05 1016.10 1016.13 1016.23 1016.41 1016.68 1017.02 1017.37 1017.69 1017.92 1018.03 1018.02 1017.91 1017.76 1017.62 1017.52 1017.51
1015.11 1014.88 1014.73 1014.78 1015.13 1015.84 1016.88 1018.15 1019.49 1020.71 1021.62 1022.09 1022.02 1021.45 1020.45 1019.18 1017.83 1016.58 1015.59 1014.93 1014.62 1014.62 1014.84 1015.16 1015.47 1015.71 1015.85 1015.88 1015.87 1015.86 1015.90 1016.04 1016.28 1016.60 1016.94 1017.26 1017.50 1017.64 1017.67 1017.62 1017.53 1017.45 1017.41 1017.43
1015.15 1015.03 1014.98 1015.12 1015.51 1016.21 1017.18 1018.35 1019.56 1020.66 1021.47 1021.89 1021.83 1021.33 1020.46 1019.34 1018.16 1017.06 1016.18 1015.58 1015.28 1015.22 1015.35 1015.55 1015.73 1015.85 1015.87 1015.81 1015.72 1015.65 1015.65 1015.76 1015.96 1016.26 1016.59 1016.90 1017.17 1017.34 1017.43 1017.45 1017.43 1017.41 1017.43 1017.49
1014.99 1015.02 1015.11 1015.34 1015.77 1016.43 1017.31 1018.33 1019.37 1020.30 1020.99 1021.34 1021.30 1020.90 1020.19 1019.28 1018.33 1017.44 1016.73 1016.24 1015.98 1015.91 1015.96 1016.04 1016.10 1016.09 1016.00 1015.85 1015.68 1015.55 1015.51 1015.57 1015.76 1016.03 1016.35 1016.68 1016.97 1017.19 1017.34 1017.43 1017.49 1017.54 1017.62 1017.73
1014.69 1014.89 1015.12 1015.45 1015.91 1016.53 1017.29 1018.15 1019.00 1019.75 1020.30 1020.59 1020.58 1020.29 1019.76 1019.10 1018.40 1017.76 1017.25 1016.90 1016.70 1016.63 1016.61 1016.60 1016.54 1016.41 1016.22 1015.97 1015.74 1015.56 1015.47 1015.51 1015.67 1015.93 1016.25 1016.59 1016.90 1017.17 1017.39 1017.56 1017.70 1017.82 1017.96 1018.11
1014.36 1014.72 1015.09 1015.51 1016.00 1016.58 1017.23 1017.92 1018.59 1019.16 1019.59 1019.82 1019.84 1019.66 1019.33 1018.90 1018.46 1018.06 1017.75 1017.53 1017.41 1017.34 1017.28 1017.18 1017.02 1016.78 1016.49 1016.18 1015.88 1015.66 1015.54 1015.55 1015.68 1015.92 1016.23 1016.58 1016.92 1017.24 1017.52 1017.76 1017.99 1018.20 1018.40 1018.60
1014.14 1014.65 1015.14 1015.64 1016.16 1016.69 1017.23 1017.77 1018.26 1018.68 1019.00 1019.18 1019.22 1019.15 1018.99 1018.78 1018.56 1018.38 1018.24 1018.14 1018.08 1018.01 1017.90 1017.73 1017.48 1017.16 1016.79 1016.42 1016.07 1015.81 1015.66 1015.64 1015.74 1015.95 1016.24 1016.57 1016.93 1017.29 1017.63 1017.95 1018.26 1018.56 1018.83 1019.09
1014.20 1014.80 1015.39 1015.93 1016.44 1016.92 1017.37 1017.77 1018.12 1018.41 1018.62 1018.76 1018.83 1018.84 1018.81 1018.77 1018.74 1018.71 1018.70 1018.69 1018.66 1018.59 1018.44 1018.20 1017.88 1017.50 1017.07 1016.65 1016.27 1015.97 1015.78 1015.72 1015.77 1015.93 1016.18 1016.49 1016.85 1017.22 1017.62 1018.01 1018.41 1018.79 1019.16 1019.48
1014.61 1015.26 1015.87 1016.42 1016.91 1017.32 1017.66 1017.94 1018.17 1018.34 1018.47 1018.57 1018.65 1018.72 1018.79 1018.87 1018.96 1019.04 1019.11 1019.15 1019.13 1019.03 1018.84 1018.56 1018.19 1017.76 1017.30 1016.85 1016.44 1016.10 1015.86 1015.74 1015.73 1015.82 1016.00 1016.26 1016.59 1016.97 1017.40 1017.86 1018.34 1018.83 1019.29 1019.69
1015.37 1016.00 1016.58 1017.08 1017.50 1017.82 1018.06 1018.23 1018.34 1018.42 1018.49 1018.56 1018.64 1018.74 1018.87 1019.01 1019.16 1019.30 1019.41 1019.46 1019.43 1019.31 1019.09 1018.78 1018.38 1017.93 1017.46 1016.98 1016.55 1016.17 1015.88 1015.68 1015.58 1015.57 1015.67 1015.86 1016.14 1016.50 1016.95 1017.47 1018.03 1018.61 1019.17 1019.68
1016.36 1016.92 1017.40 1017.80 1018.11 1018.32 1018.45 1018.51 1018.54 1018.55 1018.56 1018.60 1018.67 1018.79 1018.94 1019.11 1019.28 1019.44 1019.55 1019.59 1019.55 1019.41 1019.17 1018.85 1018.45 1018.01 1017.53 1017.06 1016.60 1016.19 1015.83 1015.55 1015.34 1015.23 1015.21 1015.31 1015.52 1015.86 1016.31 1016.87 1017.50 1018.17 1018.84 1019.46
1017.41 1017.83 1018.18 1018.44 1018.61 1018.69 1018.71 1018.69 1018.63 1018.59 1018.57 1018.59 1018.66 1018.77 1018.93 1019.10 1019.27 1019.42 1019.52 1019.54 1019.49 1019.34 1019.11 1018.80 1018.43 1018.01 1017.55 1017.09 1016.62 1016.18 1015.76 1015.38 1015.07 1014.84 1014.71 1014.70 1014.83 1015.12 1015.57 1016.15 1016.84 1017.59 1018.36 1019.09
1018.31 1018.58 1018.76 1018.86 1018.89 1018.85 1018.77 1018.67 1018.57 1018.49 1018.45 1018.47 1018.53 1018.65 1018.80 1018.97 1019.13 1019.26 1019.34 1019.35 1019.29 1019.16 1018.95 1018.68 1018.35 1017.97 1017.55 1017.11 1016.64 1016.16 1015.69 1015.23 1014.81 1014.47 1014.23 1014.12 1014.17 1014.41 1014.83 1015.42 1016.15 1016.96 1017.82 1018.64
1018.93 1019.03 1019.05 1019.00 1018.90 1018.76 1018.61 1018.46 1018.34 1018.26 1018.22 1018.25 1018.33 1018.44 1018.59 1018.75 1018.89 1019.00 1019.07 1019.08 1019.03 1018.92 1018.75 1018.53 1018.25 1017.93 1017.56 1017.14 1016.68 1016.18 1015.66 1015.13 1014.63 1014.19 1013.85 1013.65 1013.62 1013.80 1014.19 1014.78 1015.52 1016.38 1017.28 1018.18
1019.20 1019.16 1019.04 1018.88 1018.68 1018.48 1018.29 1018.14 1018.02 1017.96 1017.96 1018.00 1018.10 1018.22 1018.36 1018.51 1018.63 1018.73 1018.78 1018.80 1018.76 1018.69 1018.56 1018.40 1018.18 1017.91 1017.59 1017.20 1016.75 1016.24 1015.68 1015.10 1014.53 1014.01 1013.59 1013.32 1013.23 1013.36 1013.71 1014.27 1015.01 1015.88 1016.81 1017.74
1019.15 1019.01 1018.81 1018.58 1018.34 1018.13 1017.94 1017.81 1017.74 1017.72 1017.76 1017.83 1017.95 1018.08 1018.21 1018.33 1018.44 1018.52 1018.57 1018.58 1018.57 1018.52 1018.43 1018.32 1018.15 1017.93 1017.64 1017.28 1016.83 1016.31 1015.73 1015.11 1014.49 1013.92 1013.44 1013.12 1012.98 1013.07 1013.38 1013.91 1014.63 1015.48 1016.40 1017.34
1018.92 1018.73 1018.49 1018.25 1018.02 1017.84 1017.70 1017.63 1017.61 1017.65 1017.72 1017.83 1017.95 1018.08 1018.20 1018.29 1018.37 1018.43 1018.46 1018.47 1018.46 1018.43 1018.38 1018.29 1018.16 1017.96 1017.69 1017.34 1016.89 1016.35 1015.74 1015.09 1014.44 1013.84 1013.34 1012.99 1012.82 1012.88 1013.16 1013.65 1014.32 1015.13 1016.03 1016.94
1018.66 1018.46 1018.25 1018.04 1017.87 1017.75 1017.68 1017.68 1017.72 1017.81 1017.92 1018.04 1018.16 1018.26 1018.34 1018.41 1018.45 1018.47 1018.47 1018.47 1018.45 1018.43 1018.38 1018.30 1018.17 1017.98 1017.70 1017.33 1016.86 1016.30 1015.66 1014.99 1014.33 1013.71 1013.20 1012.83 1012.66 1012.69 1012.95 1013.41 1014.04 1014.80 1015.65 1016.51
Thickness
5813 5799 5790 5797 5801 5802 5798 5792 5788 5796 5811 5805 5797 5796 5801 5805 5803 5798 5795 5791 5788 5787 5788 5786 5782 5779 5774 5769 5764 5760 5757 5753 5750 5747 5744 5742 5740 5741 5741 5741 5741 5740 5740 5739
5792 5790 5803 5809 5808 5803 5798 5790 5789 5797 5808 5802 5793 5792 5799 5803 5801 5800 5796 5792 5790 5787 5785 5783 5781 5777 5773 5768 5764 5760 5757 5753 5750 5747 5745 5744 5743 5742 5742 5742 5741 5741 5740 5739
5789 5796 5810 5808 5803 5799 5797 5792 5793 5792 5798 5797 5792 5783 5789 5798 5802 5802 5800 5797 5793 5789 5784 5782 5779 5776 5772 5768 5765 5761 5757 5754 5750 5748 5745 5744 5742 5741 5740 5740 5740 5741 5740 5740
5792 5802 5806 5803 5801 5800 5788 5805 5802 5796 5781 5768 5779 5758 5779 5786 5791 5795 5797 5795 5792 5790 5786 5782 5779 5775 5771 5769 5767 5762 5758 5754 5751 5749 5746 5743 5740 5738 5739 5740 5741 5741 5741 5740
5788 5801 5802 5798 5804 5805 5800 5806 5798 5790 5777 5764 5767 5758 5766 5782 5783 5789 5794 5795 5793 5790 5787 5783 5780 5777 5773 5770 5767 5763 5759 5755 5753 5750 5747 5744 5742 5741 5740 5740 5740 5741 5741 5741
5793 5807 5809 5808 5814 5812 5807 5794 5782 5768 5760 5746 5758 5756 5758 5773 5784 5790 5795 5796 5794 5791 5788 5784 5780 5777 5773 5770 5767 5763 5759 5756 5754 5751 5748 5746 5743 5741 5740 5739 5739 5739 5740 5740
5783 5796 5809 5815 5804 5804 5796 5769 5743 5741 5731 5737 5754 5753 5759 5786 5795 5797 5796 5796 5795 5793 5788 5783 5779 5775 5772 5770 5767 5763 5759 5756 5755 5752 5749 5747 5744 5743 5741 5740 5739 5738 5738 5739
5762 5765 5796 5807 5802 5792 5787 5772 5742 5731 5727 5733 5749 5750 5772 5795 5802 5804 5802 5799 5795 5790 5787 5784 5780 5776 5772 5769 5767 5764 5760 5757 5755 5752 5750 5748 5746 5744 5742 5741 5740 5739 5739 5739
5755 5763 5797 5808 5811 5798 5779 5768 5766 5740 5734 5730 5740 5757 5780 5796 5797 5798 5797 5795 5792 5789 5786 5783 5780 5776 5772 5769 5767 5765 5761 5758 5756 5753 5750 5748 5746 5744 5742 5741 5740 5739 5739 5739
5769 5765 5785 5798 5803 5795 5788 5768 5750 5737 5722 5723 5738 5747 5757 5781 5786 5790 5790 5790 5790 5788 5785 5782 5779 5776 5773 5770 5768 5765 5762 5759 5756 5753 5750 5748 5746 5744 5742 5741 5739 5739 5738 5738
5776 5762 5770 5783 5784 5779 5775 5765 5747 5732 5734 5720 5722 5742 5780 5783 5788 5788 5790 5791 5789 5787 5784 5781 5779 5776 5773 5770 5767 5764 5761 5758 5755 5752 5749 5746 5744 5743 5741 5740 5739 5738 5737 5736
5768 5752 5748 5766 5786 5792 5787 5771 5756 5743 5733 5726 5726 5744 5791 5790 5792 5791 5790 5791 5790 5788 5784 5782 5778 5775 5771 5768 5765 5762 5760 5758 5755 5752 5749 5746 5743 5741 5739 5738 5738 5737 5735 5734
5765 5747 5735 5745 5760 5777 5776 5769 5762 5747 5729 5719 5725 5751 5787 5789 5790 5791 5790 5789 5788 5787 5784 5780 5776 5772 5770 5766 5763 5761 5759 5756 5753 5751 5747 5744 5741 5739 5737 5736 5736 5734 5733 5731
5773 5746 5740 5736 5746 5764 5768 5765 5759 5751 5732 5727 5737 5755 5773 5780 5783 5786 5787 5786 5786 5784 5781 5777 5773 5770 5768 5765 5762 5760 5757 5755 5752 5749 5745 5741 5738 5736 5734 5733 5732 5731 5729 5727
5768 5748 5752 5757 5766 5770 5770 5767 5762 5760 5751 5744 5753 5756 5771 5779 5782 5784 5785 5783 5781 5779 5777 5774 5770 5767 5765 5763 5761 5759 5756 5753 5751 5747 5742 5739 5737 5734 5732 5730 5728 5727 5725 5723
5755 5747 5749 5753 5761 5765 5763 5765 5763 5763 5760 5758 5760 5762 5778 5781 5782 5781 5780 5780 5777 5775 5774 5772 5769 5766 5763 5760 5759 5757 5753 5751 5748 5745 5741 5738 5735 5732 5730 5727 5725 5723 5720 5718
5742 5740 5732 5731 5749 5756 5744 5755 5759 5760 5762 5761 5758 5767 5775 5774 5776 5777 5777 5777 5776 5775 5774 5771 5768 5765 5761 5759 5757 5753 5750 5747 5744 5740 5737 5734 5731 5729 5727 5724 5721 5717 5714 5712
5738 5730 5720 5720 5733 5722 5740 5763 5764 5759 5759 5763 5765 5769 5771 5772 5774 5776 5777 5775 5773 5773 5772 5769 5766 5763 5760 5757 5754 5751 5747 5743 5739 5735 5732 5729 5727 5724 5722 5719 5716 5712 5709 5706
5740 5730 5713 5707 5710 5722 5742 5756 5757 5753 5751 5761 5762 5764 5767 5770 5770 5769 5774 5774 5772 5771 5769 5768 5766 5762 5757 5753 5750 5746 5741 5737 5733 5730 5727 5725 5722 5720 5717 5713 5710 5707 5704 5701
5728 5728 5714 5704 5706 5706 5734 5756 5763 5755 5742 5759 5759 5759 5761 5763 5752 5757 5768 5769 5768 5767 5765 5763 5761 5757 5752 5749 5745 5740 5735 5731 5728 5726 5724 5722 5718 5715 5712 5709 5706 5702 5698 5694
5713 5709 5705 5703 5706 5714 5740 5751 5755 5732 5737 5756 5756 5756 5756 5754 5754 5758 5761 5761 5760 5759 5758 5757 5754 5750 5747 5744 5740 5735 5730 5727 5725 5722 5720 5717 5713 5710 5707 5703 5700 5696 5692 5688
5702 5699 5695 5695 5699 5708 5738 5742 5737 5737 5747 5749 5750 5751 5750 5749 5751 5753 5753 5752 5752 5750 5749 5748 5744 5740 5739 5737 5733 5726 5723 5723 5721 5717 5714 5710 5707 5703 5700 5697 5692 5689 5685 5680
5694 5699 5697 5700 5703 5717 5726 5732 5737 5740 5739 5742 5743 5745 5746 5744 5743 5744 5744 5743 5742 5742 5740 5738 5735 5732 5729 5727 5726 5722 5717 5715 5715 5711 5706 5703 5700 5696 5692 5689 5685 5680 5677 5673
5692 5695 5695 5698 5707 5714 5720 5726 5731 5734 5735 5736 5737 5738 5739 5737 5736 5735 5734 5733 5732 5732 5729 5728 5726 5723 5720 5719 5716 5713 5709 5708 5707 5703 5698 5695 5692 5688 5683 5680 5677 5673 5669 5666
5685 5688 5688 5690 5700 5707 5712 5716 5721 5725 5727 5728 5729 5729 5729 5728 5726 5725 5724 5723 5722 5721 5719 5718 5716 5713 5710 5709 5707 5705 5703 5701 5698 5695 5691 5688 5685 5681 5676 5672 5667 5665 5662 5659
5676 5679 5682 5684 5694 5696 5699 5707 5712 5713 5714 5716 5717 5716 5717 5717 5714 5714 5713 5712 5711 5710 5710 5708 5706 5703 5701 5699 5698 5697 5695 5694 5691 5687 5683 5680 5676 5672 5668 5663 5657 5654 5652 5649